Regional Weather Roundup
Issued by NWS

Home | Current Version | Previous Version | Graphics & Text | Print | Product List | Glossary On
Versions: 1 2 3 4 5 6 7 8 9 10 11 12 13 14 15 16 17 18 19 20 21 22 23 24 25 26 27 28 29 30 31 32 33 34 35 36 37 38 39 40 41 42 43 44 45 46 47 48 49 50
553
ASUS43 KLOT 301303
RWRIL

ILLINOIS REGIONAL WEATHER ROUNDUP
NATIONAL WEATHER SERVICE CHICAGO/ROMEOVILLE IL
800 AM CDT MON MAY 30 2016

NOTE: "FAIR" INDICATES FEW OR NO CLOUDS BELOW 12,000 FEET WITH NO
SIGNIFICANT WEATHER AND/OR OBSTRUCTIONS TO VISIBILITY.

* THESE STATIONS ARE NOT UNDER NWS QUALITY CONTROL. THEY ALSO MAY NOT
  REPORT WEATHER SUCH AS PRECIPITATION OR FOG.

ILZ001-002-007-009-015-016-024-301400-
NORTHWEST ILLINOIS

CITY           SKY/WX    TMP DP  RH WIND       PRES   REMARKS
MOLINE         MOSUNNY   73  61  65 CALM      30.04R
STERLING*      SUNNY     70  63  78 CALM      30.04R
$$

ILZ003-004-008-010-011-017-018-301400-
NORTH CENTRAL ILLINOIS

CITY           SKY/WX    TMP DP  RH WIND       PRES   REMARKS
ROCKFORD       MOSUNNY   70  62  76 CALM      30.05S
FREEPORT*      SUNNY     68  60  76 NW3       30.05S
ROCHELLE*      SUNNY     70  62  75 SW5       30.04S
$$

ILZ005-006-012>014-019>023-301400-
NORTHEAST ILLINOIS

CITY           SKY/WX    TMP DP  RH WIND       PRES   REMARKS
CHICAGO-OHARE  MOSUNNY   72  59  63 CALM      30.02S
CHICAGO-MIDWAY MOSUNNY   73  58  59 CALM      30.02S
AURORA         SUNNY     71  60  68 SW3       30.04R
LANSING*       CLOUDY    72  59  63 CALM      30.04R
WAUKEGAN       SUNNY     72  60  66 NW5       30.02R
DUPAGE AIRPORT SUNNY     70  60  70 SW6       30.03R
WHEELING       SUNNY     73  58  59 CALM      30.03R
NORTHERLY ISL    N/A     73  57  57 W6          N/A
NORTHERLY ISL    N/A     73  57  57 W6          N/A
$$

LMZ740>746-301400-
SOUTHERN LAKE MICHIGAN

STATION/POSITION SKY/WX   TEMP    WIND        PRES    VSBY  WAVE
                          AIR SEA DIR/SP/G                  HT/PER
                          (F)     (DEG/KT/KT) (MB)    (MI)  (FT/S)
SOUTHERN BUOY              56 51  220/  4/  6 1016.1          0
WILMETTE HARBOR            62 55  260/  2/  4   N/A           0
HARRISON CRIB              70     260/  6/  7   N/A
BURNHAM HARBOR             74     270/  4/  9   N/A
CALUMET HARBOR             70     230/  3/  5 1016.1S
BURNS HARBOR               67     200/  4/  6 1017.3S
MICHIGAN CITY              67     180/  5/  5   N/A
MICHIGAN CITY 6N           62 58  210/  4/  6   N/A           0
ST. JOSEPH                 63 61  270/  2/  2   N/A           1
$$

ILZ025>027-034>036-040-047-049-050-058-095>099-301400-
WEST-CENTRAL ILLINOIS

CITY           SKY/WX    TMP DP  RH WIND       PRES   REMARKS
QUINCY         SUNNY     71  64  78 SW5       30.07S
MACOMB*        SUNNY     73  64  73 SW8       30.09R
PITTSFIELD*    SUNNY     73  64  71 W5        30.09R
$$

ILZ028>032-037-038-041>044-048-051>054-059>061-301400-
CENTRAL ILLINOIS

CITY           SKY/WX    TMP DP  RH WIND       PRES   REMARKS
BLOOMINGTON    SUNNY     72  61  68 SW9       30.08R
DECATUR        SUNNY     73  61  65 SW7       30.08R
PEORIA         SUNNY     70  63  78 S3        30.06R
SPRINGFIELD    MOSUNNY   74  63  68 S3        30.08R
TAYLORVILLE    NOT AVBL
$$

ILZ033-039-045-046-055>057-062-063-301400-
EAST-CENTRAL ILLINOIS

CITY           SKY/WX    TMP DP  RH WIND       PRES   REMARKS
CHAMPAIGN      SUNNY     72  58  61 CALM      30.07R
MATTOON          N/A     69  62  78 CALM      30.07R
$$

ILZ079-100>102-301400-
SOUTHWEST ILLINOIS

CITY           SKY/WX    TMP DP  RH WIND       PRES   REMARKS
ALTON          MOSUNNY   72  64  78 SW8       30.08R
BELLEVILLE     SUNNY     72  69  89 SW1       30.08R
CAHOKIA*       SUNNY     72  64  76 CALM      30.09R
SPARTA*        SUNNY     72  64  76 CALM      30.10R
$$

ILZ064>066-069>071-074>076-080>082-084>086-088>090-092>094-301400-
SOUTH-CENTRAL ILLINOIS

CITY           SKY/WX    TMP DP  RH WIND       PRES   REMARKS
CARBONDALE     SUNNY     70  65  84 CALM      30.09R
EFFINGHAM*     SUNNY     70  65  83 CALM      30.09S
MARION         MOSUNNY   72  68  88 W3        30.09R
MT. VERNON     SUNNY     70  64  83 CALM      30.10R
SALEM*         MOSUNNY   74  66  76 CALM      30.09R
$$

ILZ067-068-072-073-078-083-087-091-301400-
SOUTHEAST ILLINOIS

CITY           SKY/WX    TMP DP  RH WIND       PRES   REMARKS
LAWRENCEVILLE  SUNNY     73  64  73 CALM      30.08R
FLORA*         SUNNY     74  65  74 CALM      30.08S
HARRISBURG*    SUNNY     69  66  90 CALM      30.09R
ROBINSON*      SUNNY     70  63  78 CALM      30.09R
$$

ABBREVIATIONS USED IN REMARKS
   TC - TEMPERATURE IN CELSIUS
  WCI - WIND CHILL INDEX
   HX - HEAT INDEX
  VSB - VISIBILITY
$$





USA.gov is the U.S. government's official web portal to all federal, state and local government web resources and services.